Regional Weather Roundup
Issued by NWS

Home | Current Version | Previous Version | Text Only | Print | Product List | Glossary Off
Versions: 1 2 3 4 5 6 7 8 9 10 11 12 13 14 15 16 17 18 19 20 21 22 23 24 25 26 27 28 29 30 31 32 33 34 35 36 37 38 39 40 41 42 43 44 45 46 47 48 49 50

000
ASUS43 KLMK 230410
RWRKY
KENTUCKY REGIONAL WEATHER ROUNDUP
NATIONAL WEATHER SERVICE LOUISVILLE KY
1200 AM EDT WED AUG 23 2017

NOTE "FAIR" INDICATES FEW OR NO CLOUDS BELOW 12,000 FEET
WITH NO SIGNIFICANT WEATHER AND/OR OBSTRUCTIONS TO VISIBILITY.

KYZ001>023-026-027-061>063-070>075-230500-
WESTERN AND SOUTH CENTRAL KENTUCKY

CITY           SKY/WX    TMP DP  RH WIND       PRES   REMARKS
PADUCAH        CLEAR     69  66  90 CALM      30.02R
HENDERSON      NOT AVBL
OWENSBORO      PTCLDY    71  68  90 NW5       30.00R
HOPKINSVILLE   CLOUDY    72  71  99 W6        30.01R
BOWLING GREEN  PTCLDY    73  73 100 W5        30.00R
GLASGOW        CLOUDY   N/A N/A N/A W3        29.99S HAZE
$$

KYZ024-025-028>034-038-045-046-053-230500-
NORTH CENTRAL KENTUCKY

CITY           SKY/WX    TMP DP  RH WIND       PRES   REMARKS
LOUISVILLE/SDF MOCLDY    73  70  90 W7        29.96S
LOUISVILLE/LOU PTCLDY    71  71 100 CALM      29.97S FOG
FORT KNOX      CLOUDY    69  69 100 W5        29.97R
$$

KYZ035>037-039>044-047>052-055>060-089>105-230500-
NORTHEAST KENTUCKY

CITY           SKY/WX    TMP DP  RH WIND       PRES   REMARKS
LEXINGTON      MOCLDY    71  68  90 W3        29.97F
COVINGTON      CLOUDY    71  71 100 W8        29.96R
FRANKFORT      PTCLDY    71  68  90 CALM      29.96S
$$

KYZ054-064>069-076>088-106>120-230500-
SOUTHEAST KENTUCKY

CITY           SKY/WX    TMP DP  RH WIND       PRES   REMARKS
JACKSON        LGT RAIN  71  69  93 VRB3      29.98F FOG
LONDON         RAIN      71  68  90 NW5       29.99F FOG
SOMERSET       CLOUDY    70  70 100 CALM      29.99F
MIDDLESBORO    CLOUDY    73  73 100 CALM      30.00R
MONTICELLO     LGT RAIN  72  71  97 NE9       30.00F
$$




USA.gov is the U.S. government's official web portal to all federal, state and local government web resources and services.